Location: Unspecified
(0.0000°N, 0.0000°E)
Time: 07:59:18
(UTC+02:00)

Orbus 21S - Visible Passes

Search period start: 01 October 2014 00:00
Search period end: 11 October 2014 00:00
Orbit: 323 x 33465 km, 24.1° (Epoch: 30 September)

Date Brightness Start Highest point End Pass type
(mag) Time Alt. Az. Time Alt. Az. Time Alt. Az.
01 Oct 8.3 00:00:00 75° WSW 23:59:45 75° WSW 07:04:09 10° ESE visible
01 Oct 7.0 17:17:42 10° NNW 00:05:01 49° SE 02:15:21 10° ESE visible
02 Oct 9.0 23:06:52 10° WNW 00:41:08 55° W 08:12:10 10° E visible
03 Oct 7.6 18:24:34 10° NW 00:38:32 63° SE 03:30:06 10° ESE visible
05 Oct 5.3 08:37:42 10° WSW 09:14:38 61° SSE 09:19:22 10° E visible
05 Oct 8.3 19:31:52 10° NW 23:57:28 72° SSE 04:41:26 10° ESE visible
06 Oct 9.8 19:45:44 10° ESE 21:58:49 19° ESE 23:16:51 10° ESE visible
07 Oct 10.0 02:05:12 10° W 02:59:47 15° W 04:27:43 10° WSW visible
07 Oct 8.2 20:39:57 10° WNW 21:50:32 88° ENE 05:50:45 10° ESE visible
08 Oct 6.5 16:05:41 10° NNW 22:58:51 36° ESE 17:02:42 10° E visible
09 Oct 8.2 21:49:30 10° WNW 23:19:32 70° WSW 06:58:41 10° ESE visible
10 Oct 7.1 17:11:22 10° NNW 23:52:56 52° SE 00:00:00 52° SE visible
